Regional Weather Roundup
Issued by NWS

Current Version | Previous Version | Text Only | Print | Product List | Glossary On
Versions: 1 2 3 4 5 6 7 8 9 10 11 12 13 14 15 16 17 18 19 20 21 22 23 24 25 26 27 28 29 30 31 32 33 34 35 36 37 38 39 40 41 42 43 44 45 46 47 48 49 50
000
ASUS44 KMEG 261210
RWRTN
TENNESSEE HOURLY STATE WEATHER ROUNDUP
NATIONAL WEATHER SERVICE MEMPHIS TN
600 AM CST MON JAN 26 2015

TNZ002-004-019-021-049-052-054-088>092-261300-
WEST TENNESSEE

CITY           SKY/WX    TMP DP  RH WIND       PRES   REMARKS
MEMPHIS INTL   CLOUDY    39  29  67 N13G22    30.06R WCI  31
NWS MEMPHIS      N/A     38 N/A N/A MISG        N/A
JACKSON        CLOUDY    34  28  79 NW16      30.03R WCI  24
DYERSBURG      CLOUDY    34  18  51 N6        30.07R WCI  29
UNION CITY     PTCLDY    28  27  93 NW12      30.02R WCI  18
PARIS          CLOUDY    30  27  86 NW12      30.00R WCI  21
LEXINGTON      CLOUDY    34  28  80 NW9       29.97R WCI  26
SAVANNAH       CLOUDY    36  30  80 NW9       30.00R WCI  29
$$

TNZ008-025-027-028-033-062-065-066-261300-
NORTH MIDDLE TENNESSEE

CITY           SKY/WX    TMP DP  RH WIND       PRES   REMARKS
NASHVILLE      CLOUDY    33  29  85 NW17G26   29.92R WCI  22
CLARKSVILLE    CLOUDY    33  29  85 NW15      29.96R WCI  23
SMYRNA         CLOUDY    34  30  86 NW18      29.93R WCI  23
COOKEVILLE     CLOUDY    34  34 100 NW14      29.82R WCI  24
CROSSVILLE     CLOUDY    36  33  89 NW14G20   29.75R FOG     WCI  27
$$

TNZ061-075-076-078-094-096-097-261300-
SOUTH MIDDLE TENNESSEE

CITY           SKY/WX    TMP DP  RH WIND       PRES   REMARKS
FAYETTEVILLE   CLOUDY    36  34  93 MISG      29.87R
TULLAHOMA      CLOUDY    34  30  86 NW21      29.86R WCI  22
WINCHESTER     CLOUDY    36  34  93 NW14      29.85R WCI  27
MCMINNVILLE    CLOUDY    34  34 100 NW6       29.84R WCI  29
COLUMBIA       CLOUDY   N/A N/A N/A NW12      29.92R
SHELBYVILLE    CLOUDY    36  34  93 NW17      29.90R WCI  25
$$

TNZ017-018-042-046-047-261300-
NORTHEAST TENNESSEE

CITY           SKY/WX    TMP DP  RH WIND       PRES   REMARKS
TRI CITIES     LGT RAIN  40  39  97 SW3       29.65R
ELIZABETHTON   LGT RAIN  37  36  93 CALM      29.65R FOG
$$

TNZ012-013-036-069-073-074-261300-
CENTRAL EAST TENNESSEE

CITY           SKY/WX    TMP DP  RH WIND       PRES   REMARKS
KNOXVILLE      CLOUDY    40  36  86 W13       29.74R WCI  32
OAK RIDGE      CLOUDY    41  36  82 VRB5      29.75R
GATLINBURG     CLOUDY    39  36  87 W10       29.72R WCI  32
MORRISTOWN     PTSUNNY   39  37  93 W7        29.70R WCI  34
$$

TNZ083-085-099-261300-
SOUTHEAST TENNESSEE

CITY           SKY/WX    TMP DP  RH WIND       PRES   REMARKS
CHATTANOOGA    MOCLDY    44  36  73 NW8       29.79R
$$

SKY/WX REPORTED AS FAIR MEANS FEW OR NO CLOUDS BELOW
12 THOUSAND FEET.



USA.gov is the U.S. government's official web portal to all federal, state and local government web resources and services.